User: anonymous   Login
Location: Unspecified
(0.0000°N, 0.0000°E)
Time: 12:49:23
(UTC+00:00)
Language:

Kosmos-2004 - Orbit

View from above orbital plane
View from above orbital plane
View from above satellite
View from above satellite

Ground track
Ground track

The orbit data is extracted from the following two-line orbital elements,

1 19826U 89017A   17229.83357906 +.00000013 +00000-0 -24837-5 0  9997
2 19826 082.9543 138.6977 0029395 207.0460 214.0189 13.72240312426100
Epoch (UTC): 17 August 2017 20:00:21
Eccentricity: 0.0029395
inclination: 82.9543°
perigee height: 970 km
apogee height: 1013 km
right ascension of ascending node: 138.6977°
argument of perigee: 207.0460°
revolutions per day: 13.72240312
mean anomaly at epoch: 214.0189°
orbit number at epoch: 42610

The dashed part of the orbit path shows where the satellite is in the earth's shadow,  

DLR